User: anonymous   Login
Location: Unspecified
(0.0000°N, 0.0000°E)
Time: 19:15:23
(UTC+00:00)
Language:

TBA - TO BE ASSIGNED - Orbit

View from above orbital plane
View from above orbital plane
View from above satellite
View from above satellite

Ground track
Ground track

The orbit is defined by the following mean orbital elements,

1 67540U          26145.42125872 +.00000000 +00000-0 +52870-3 0 00009
2 67540  97.2865  32.4752 0001787  93.9749 266.1698 15.33455900    01
Epoch (UTC): 25 May 2026 10:06:36
Eccentricity: 0.0001787
inclination: 97.2865°
perigee height: 464 km
apogee height: 467 km
right ascension of ascending node: 32.4752°
argument of perigee: 93.9749°
revolutions per day: 15.33455900
mean anomaly at epoch: 266.1698°

The dashed part of the orbit path shows where the satellite is in the earth's shadow,  

DLR